Saint Bonnet de Bellac- Haute Vienne - France
Donnes mto: mardi, 16/10/2012
Date Horaire Temp. E. Hum. E. P.atmo. Pluie Vent Direction Direction Ensoleilleme Solaire P. de rose Temp au vent Rafales
16/10/2012 00:00 8,8 C 83 % 1011,0 hPa 0,0 mm 7,6 km/h (2 Bft) S 180 0 min 0 W/m 6,1 C 7,7 C 9,7 km/h (2 Bft)
16/10/2012 00:10 8,8 C 82 % 1011,0 hPa 0,0 mm 6,8 km/h (2 Bft) S-SO 202 0 min 0 W/m 5,9 C 7,9 C 6,8 km/h (2 Bft)
16/10/2012 00:20 8,9 C 82 % 1010,9 hPa 0,0 mm 7,9 km/h (2 Bft) S-SO 202 0 min 0 W/m 6,0 C 7,7 C 11,2 km/h (2 Bft)
16/10/2012 00:30 8,9 C 82 % 1010,7 hPa 0,0 mm 6,8 km/h (2 Bft) S-SE 157 0 min 0 W/m 6,0 C 8,0 C 10,8 km/h (2 Bft)
16/10/2012 00:40 8,9 C 81 % 1010,7 hPa 0,0 mm 5,4 km/h (2 Bft) S 180 0 min 0 W/m 5,8 C 8,4 C 9,7 km/h (2 Bft)
16/10/2012 00:50 9,1 C 81 % 1010,6 hPa 0,0 mm 7,2 km/h (2 Bft) S-SO 202 0 min 0 W/m 6,0 C 8,1 C 9,4 km/h (2 Bft)
16/10/2012 01:00 9,2 C 81 % 1010,6 hPa 0,0 mm 4,3 km/h (1 Bft) S 180 0 min 0 W/m 6,1 C 9,2 C 6,1 km/h (2 Bft)
16/10/2012 01:10 9,2 C 80 % 1010,5 hPa 0,0 mm 9,4 km/h (2 Bft) SE 135 0 min 0 W/m 5,9 C 7,8 C 15,8 km/h (3 Bft)
16/10/2012 01:20 9,3 C 80 % 1010,6 hPa 0,0 mm 3,2 km/h (1 Bft) S-SO 202 0 min 0 W/m 6,0 C 9,3 C 7,9 km/h (2 Bft)
16/10/2012 01:30 9,2 C 80 % 1010,4 hPa 0,0 mm 10,4 km/h (2 Bft) S-SO 202 0 min 0 W/m 5,9 C 7,6 C 17,3 km/h (3 Bft)
16/10/2012 01:40 9,2 C 80 % 1010,5 hPa 0,0 mm 2,9 km/h (1 Bft) S 180 0 min 0 W/m 5,9 C 9,2 C 4,0 km/h (1 Bft)
16/10/2012 01:50 9,3 C 80 % 1010,2 hPa 0,0 mm 7,9 km/h (2 Bft) S-SO 202 0 min 0 W/m 6,0 C 8,2 C 9,7 km/h (2 Bft)
16/10/2012 02:00 9,3 C 80 % 1010,2 hPa 0,0 mm 7,2 km/h (2 Bft) SO 225 0 min 0 W/m 6,0 C 8,4 C 11,2 km/h (2 Bft)
16/10/2012 02:10 9,3 C 80 % 1010,2 hPa 0,0 mm 13,7 km/h (3 Bft) SO 225 0 min 0 W/m 6,0 C 7,2 C 14,8 km/h (3 Bft)
16/10/2012 02:20 9,3 C 80 % 1010,0 hPa 0,0 mm 10,1 km/h (2 Bft) SE 135 0 min 0 W/m 6,0 C 7,8 C 10,1 km/h (2 Bft)
16/10/2012 02:30 9,4 C 80 % 1010,0 hPa 0,0 mm 10,4 km/h (2 Bft) SO 225 0 min 0 W/m 6,1 C 7,8 C 10,4 km/h (2 Bft)
16/10/2012 02:40 9,5 C 80 % 1010,0 hPa 0,0 mm 12,2 km/h (2 Bft) S-SO 202 0 min 0 W/m 6,2 C 7,7 C 19,4 km/h (3 Bft)
16/10/2012 02:50 9,7 C 80 % 1009,9 hPa 0,0 mm 9,0 km/h (2 Bft) SO 225 0 min 0 W/m 6,4 C 8,5 C 13,7 km/h (3 Bft)
16/10/2012 03:02 9,8 C 80 % 1009,9 hPa 0,0 mm 7,9 km/h (2 Bft) S 180 0 min 0 W/m 6,5 C 8,8 C 13,7 km/h (3 Bft)
16/10/2012 03:10 9,8 C 80 % 1009,6 hPa 0,0 mm 4,0 km/h (1 Bft) S 180 0 min 0 W/m 6,5 C 9,8 C 6,8 km/h (2 Bft)
16/10/2012 03:20 9,8 C 80 % 1009,5 hPa 0,0 mm 9,4 km/h (2 Bft) S 180 0 min 0 W/m 6,5 C 8,5 C 14,4 km/h (3 Bft)
16/10/2012 03:30 9,9 C 80 % 1009,4 hPa 0,0 mm 10,1 km/h (2 Bft) O-SO 247 0 min 0 W/m 6,6 C 8,5 C 20,2 km/h (4 Bft)
16/10/2012 03:40 10,1 C 80 % 1009,3 hPa 0,0 mm 14,0 km/h (3 Bft) S 180 0 min 0 W/m 6,8 C 10,1 C 20,9 km/h (4 Bft)
16/10/2012 03:50 10,2 C 79 % 1009,1 hPa 0,0 mm 7,6 km/h (2 Bft) S-SE 157 0 min 0 W/m 6,7 C 10,2 C 13,0 km/h (3 Bft)
16/10/2012 04:00 10,1 C 80 % 1009,1 hPa 0,0 mm 13,0 km/h (3 Bft) S-SE 157 0 min 0 W/m 6,8 C 10,1 C 16,6 km/h (3 Bft)
16/10/2012 04:10 10,0 C 80 % 1009,0 hPa 0,0 mm 5,8 km/h (2 Bft) SO 225 0 min 0 W/m 6,7 C 9,5 C 10,4 km/h (2 Bft)
16/10/2012 04:20 9,9 C 81 % 1008,7 hPa 0,0 mm 11,5 km/h (2 Bft) SO 225 0 min 0 W/m 6,8 C 8,3 C 22,7 km/h (4 Bft)
16/10/2012 04:30 10,0 C 82 % 1008,6 hPa 0,0 mm 6,8 km/h (2 Bft) S-SO 202 0 min 0 W/m 7,1 C 9,3 C 12,6 km/h (3 Bft)
16/10/2012 04:40 10,0 C 82 % 1008,5 hPa 0,0 mm 8,6 km/h (2 Bft) SO 225 0 min 0 W/m 7,1 C 8,9 C 17,6 km/h (3 Bft)
16/10/2012 04:50 10,0 C 82 % 1008,2 hPa 0,0 mm 13,0 km/h (3 Bft) S-SO 202 0 min 0 W/m 7,1 C 8,2 C 18,7 km/h (3 Bft)
16/10/2012 05:00 10,1 C 82 % 1008,5 hPa 0,0 mm 9,4 km/h (2 Bft) S-SO 202 0 min 0 W/m 7,2 C 10,1 C 13,0 km/h (3 Bft)
16/10/2012 05:10 10,1 C 83 % 1008,5 hPa 0,0 mm 10,4 km/h (2 Bft) S-SO 202 0 min 0 W/m 7,3 C 10,1 C 13,7 km/h (3 Bft)
16/10/2012 05:20 10,1 C 83 % 1008,5 hPa 0,0 mm 3,6 km/h (1 Bft) S-SO 202 0 min 0 W/m 7,3 C 10,1 C 8,3 km/h (2 Bft)
16/10/2012 05:30 10,3 C 83 % 1008,4 hPa 0,0 mm 6,8 km/h (2 Bft) SO 225 0 min 0 W/m 7,5 C 10,3 C 15,1 km/h (3 Bft)
16/10/2012 05:40 10,3 C 83 % 1008,2 hPa 0,0 mm 8,6 km/h (2 Bft) S 180 0 min 0 W/m 7,5 C 10,3 C 11,5 km/h (2 Bft)
16/10/2012 05:50 10,4 C 83 % 1008,1 hPa 0,0 mm 7,9 km/h (2 Bft) S-SO 202 0 min 0 W/m 7,6 C 10,4 C 13,0 km/h (3 Bft)
16/10/2012 06:00 10,4 C 83 % 1008,0 hPa 0,0 mm 11,2 km/h (2 Bft) S-SE 157 0 min 0 W/m 7,6 C 10,4 C 17,6 km/h (3 Bft)
16/10/2012 06:10 10,4 C 83 % 1008,2 hPa 0,0 mm 7,9 km/h (2 Bft) S-SE 157 0 min 0 W/m 7,6 C 10,4 C 12,2 km/h (2 Bft)
16/10/2012 06:20 10,4 C 83 % 1008,2 hPa 0,0 mm 7,6 km/h (2 Bft) O-SO 247 0 min 0 W/m 7,6 C 10,4 C 12,2 km/h (2 Bft)
16/10/2012 06:30 10,5 C 83 % 1008,0 hPa 0,0 mm 16,2 km/h (3 Bft) S-SO 202 0 min 0 W/m 7,7 C 10,5 C 16,2 km/h (3 Bft)
16/10/2012 06:40 10,6 C 83 % 1007,9 hPa 0,0 mm 6,8 km/h (2 Bft) SO 225 0 min 0 W/m 7,8 C 10,6 C 13,3 km/h (3 Bft)
16/10/2012 06:50 10,6 C 83 % 1007,9 hPa 0,0 mm 12,6 km/h (3 Bft) S-SE 157 0 min 0 W/m 7,8 C 10,6 C 22,3 km/h (4 Bft)
16/10/2012 07:00 10,8 C 83 % 1008,0 hPa 0,0 mm 11,9 km/h (2 Bft) SO 225 0 min 0 W/m 8,0 C 10,8 C 12,6 km/h (3 Bft)
16/10/2012 07:10 10,9 C 83 % 1008,2 hPa 0,0 mm 9,4 km/h (2 Bft) S 180 0 min 0 W/m 8,1 C 10,9 C 11,9 km/h (2 Bft)
16/10/2012 07:20 10,9 C 83 % 1008,4 hPa 0,0 mm 12,2 km/h (2 Bft) S-SO 202 0 min 0 W/m 8,1 C 10,9 C 14,0 km/h (3 Bft)
16/10/2012 07:30 10,6 C 83 % 1008,5 hPa 0,0 mm 15,5 km/h (3 Bft) S 180 0 min 0 W/m 7,8 C 10,6 C 24,5 km/h (4 Bft)
16/10/2012 07:40 10,5 C 83 % 1008,4 hPa 0,0 mm 10,8 km/h (2 Bft) S-SO 202 0 min 0 W/m 7,7 C 10,5 C 11,9 km/h (2 Bft)
16/10/2012 07:50 10,4 C 83 % 1008,3 hPa 0,0 mm 9,7 km/h (2 Bft) SE 135 0 min 0 W/m 7,6 C 10,4 C 14,0 km/h (3 Bft)
16/10/2012 08:00 10,4 C 83 % 1008,5 hPa 0,0 mm 11,9 km/h (2 Bft) S-SO 202 0 min 0 W/m 7,6 C 10,4 C 11,9 km/h (2 Bft)
16/10/2012 08:10 10,4 C 83 % 1008,4 hPa 0,0 mm 11,2 km/h (2 Bft) S-SO 202 0 min 0 W/m 7,6 C 10,4 C 15,1 km/h (3 Bft)
16/10/2012 08:20 10,5 C 83 % 1008,4 hPa 0,0 mm 12,6 km/h (3 Bft) S 180 0 min 0 W/m 7,7 C 10,5 C 16,9 km/h (3 Bft)
16/10/2012 08:30 10,4 C 83 % 1008,4 hPa 0,0 mm 7,6 km/h (2 Bft) S 180 0 min 0 W/m 7,6 C 10,4 C 7,6 km/h (2 Bft)
16/10/2012 08:40 10,4 C 83 % 1008,4 hPa 0,0 mm 8,3 km/h (2 Bft) S-SO 202 0 min 0 W/m 7,6 C 10,4 C 8,3 km/h (2 Bft)
16/10/2012 08:50 10,4 C 83 % 1008,5 hPa 0,0 mm 9,4 km/h (2 Bft) S-SE 157 0 min 0 W/m 7,6 C 10,4 C 9,7 km/h (2 Bft)
16/10/2012 09:00 10,6 C 83 % 1008,4 hPa 0,0 mm 10,4 km/h (2 Bft) S 180 0 min 0 W/m 7,8 C 10,6 C 15,1 km/h (3 Bft)
16/10/2012 09:10 10,6 C 83 % 1008,6 hPa 0,0 mm 13,7 km/h (3 Bft) S-SO 202 0 min 0 W/m 7,8 C 10,6 C 22,3 km/h (4 Bft)
16/10/2012 09:20 10,8 C 82 % 1008,7 hPa 0,0 mm 11,2 km/h (2 Bft) S 180 0 min 0 W/m 7,9 C 10,8 C 14,4 km/h (3 Bft)
16/10/2012 09:30 10,8 C 81 % 1008,6 hPa 0,0 mm 9,0 km/h (2 Bft) SO 225 0 min 0 W/m 7,7 C 10,8 C 12,6 km/h (3 Bft)
16/10/2012 09:40 10,8 C 81 % 1008,8 hPa 0,0 mm 9,4 km/h (2 Bft) S-SO 202 0 min 0 W/m 7,7 C 10,8 C 14,4 km/h (3 Bft)
16/10/2012 09:50 10,8 C 81 % 1009,3 hPa 0,0 mm 10,8 km/h (2 Bft) SO 225 0 min 0 W/m 7,7 C 10,8 C 15,1 km/h (3 Bft)
16/10/2012 10:00 10,8 C 82 % 1009,6 hPa 0,0 mm 5,0 km/h (1 Bft) O-SO 247 0 min 0 W/m 7,9 C 10,8 C 7,6 km/h (2 Bft)
16/10/2012 10:10 10,6 C 83 % 1009,7 hPa 0,0 mm 2,9 km/h (1 Bft) S-SO 202 0 min 0 W/m 7,8 C 10,6 C 7,6 km/h (2 Bft)
16/10/2012 10:20 10,4 C 84 % 1009,7 hPa 0,0 mm 6,8 km/h (2 Bft) SO 225 0 min 0 W/m 7,8 C 10,4 C 13,0 km/h (3 Bft)
16/10/2012 10:30 10,2 C 85 % 1009,9 hPa 0,0 mm 5,4 km/h (2 Bft) S-SO 202 0 min 0 W/m 7,8 C 10,2 C 9,0 km/h (2 Bft)
16/10/2012 10:40 10,1 C 87 % 1010,0 hPa 0,0 mm 6,8 km/h (2 Bft) O-SO 247 0 min 0 W/m 8,0 C 10,1 C 9,0 km/h (2 Bft)
16/10/2012 10:50 9,8 C 88 % 1010,1 hPa 0,0 mm 3,6 km/h (1 Bft) SO 225 0 min 0 W/m 7,9 C 9,8 C 7,9 km/h (2 Bft)
16/10/2012 11:00 9,8 C 89 % 1010,4 hPa 0,1 mm 5,0 km/h (1 Bft) S-SE 157 0 min 0 W/m 8,1 C 9,5 C 7,6 km/h (2 Bft)
16/10/2012 11:10 9,8 C 90 % 1010,5 hPa 0,0 mm 3,2 km/h (1 Bft) S-SO 202 0 min 0 W/m 8,2 C 9,8 C 6,5 km/h (2 Bft)
16/10/2012 11:20 9,7 C 90 % 1010,7 hPa 0,1 mm 1,8 km/h (1 Bft) SO 225 0 min 0 W/m 8,1 C 9,7 C 4,3 km/h (1 Bft)
16/10/2012 11:30 9,8 C 90 % 1010,8 hPa 0,1 mm 0,4 km/h (0 Bft) SO 225 0 min 0 W/m 8,2 C 9,8 C 2,9 km/h (1 Bft)
16/10/2012 11:40 9,8 C 91 % 1010,8 hPa 0,0 mm 2,9 km/h (1 Bft) SO 225 0 min 0 W/m 8,4 C 9,8 C 4,3 km/h (1 Bft)
16/10/2012 11:50 9,9 C 92 % 1010,7 hPa 0,1 mm 1,8 km/h (1 Bft) S 180 0 min 0 W/m 8,7 C 9,9 C 5,8 km/h (2 Bft)
16/10/2012 12:00 10,2 C 92 % 1010,7 hPa 0,0 mm 4,0 km/h (1 Bft) S-SO 202 0 min 0 W/m 9,0 C 10,2 C 7,6 km/h (2 Bft)
16/10/2012 12:10 10,3 C 92 % 1010,9 hPa 0,0 mm 4,7 km/h (1 Bft) SO 225 0 min 0 W/m 9,1 C 10,3 C 7,2 km/h (2 Bft)
16/10/2012 12:20 10,3 C 92 % 1011,0 hPa 0,0 mm 5,4 km/h (2 Bft) O-SO 247 0 min 0 W/m 9,1 C 10,3 C 11,9 km/h (2 Bft)
16/10/2012 12:30 10,3 C 92 % 1011,0 hPa 0,0 mm 2,9 km/h (1 Bft) S 180 0 min 0 W/m 9,1 C 10,3 C 2,9 km/h (1 Bft)
16/10/2012 12:40 10,4 C 92 % 1011,0 hPa 0,0 mm 4,7 km/h (1 Bft) SO 225 0 min 0 W/m 9,2 C 10,4 C 4,7 km/h (1 Bft)
16/10/2012 12:50 10,5 C 92 % 1010,9 hPa 0,0 mm 5,0 km/h (1 Bft) S 180 0 min 0 W/m 9,3 C 10,5 C 8,6 km/h (2 Bft)
16/10/2012 13:00 10,6 C 92 % 1010,7 hPa 0,1 mm 5,8 km/h (2 Bft) SO 225 0 min 0 W/m 9,4 C 10,6 C 7,2 km/h (2 Bft)
16/10/2012 13:10 10,6 C 92 % 1010,8 hPa 0,1 mm 7,9 km/h (2 Bft) S-SO 202 0 min 0 W/m 9,4 C 10,6 C 15,1 km/h (3 Bft)
16/10/2012 13:20 10,8 C 92 % 1010,8 hPa 0,0 mm 7,6 km/h (2 Bft) SO 225 0 min 0 W/m 9,6 C 10,8 C 9,7 km/h (2 Bft)
16/10/2012 13:30 10,8 C 92 % 1010,7 hPa 0,0 mm 5,4 km/h (2 Bft) O-SO 247 0 min 0 W/m 9,6 C 10,8 C 10,8 km/h (2 Bft)
16/10/2012 13:40 10,9 C 92 % 1010,7 hPa 0,0 mm 8,3 km/h (2 Bft) S 180 0 min 0 W/m 9,7 C 10,9 C 8,6 km/h (2 Bft)
16/10/2012 13:50 10,9 C 92 % 1010,7 hPa 0,0 mm 5,8 km/h (2 Bft) O-SO 247 0 min 0 W/m 9,7 C 10,9 C 6,8 km/h (2 Bft)
16/10/2012 14:00 11,1 C 92 % 1010,5 hPa 0,0 mm 2,2 km/h (1 Bft) S-SO 202 0 min 0 W/m 9,8 C 11,1 C 6,8 km/h (2 Bft)
16/10/2012 14:10 11,3 C 92 % 1010,4 hPa 0,0 mm 4,7 km/h (1 Bft) SO 225 0 min 0 W/m 10,0 C 11,3 C 9,4 km/h (2 Bft)
16/10/2012 14:20 11,4 C 93 % 1010,4 hPa 0,0 mm 2,9 km/h (1 Bft) S-SO 202 0 min 0 W/m 10,3 C 11,4 C 4,3 km/h (1 Bft)
16/10/2012 14:30 11,6 C 92 % 1010,7 hPa 0,0 mm 5,0 km/h (1 Bft) SO 225 0 min 0 W/m 10,3 C 11,6 C 6,8 km/h (2 Bft)
16/10/2012 14:40 11,6 C 92 % 1010,5 hPa 0,0 mm 5,0 km/h (1 Bft) S-SO 202 0 min 0 W/m 10,3 C 11,6 C 8,3 km/h (2 Bft)
16/10/2012 14:50 11,7 C 92 % 1010,6 hPa 0,0 mm 3,6 km/h (1 Bft) S-SO 202 0 min 0 W/m 10,4 C 11,7 C 6,8 km/h (2 Bft)
16/10/2012 15:00 11,8 C 92 % 1010,6 hPa 0,0 mm 4,0 km/h (1 Bft) S-SO 202 0 min 0 W/m 10,5 C 11,8 C 4,0 km/h (1 Bft)
16/10/2012 15:10 12,1 C 92 % 1010,6 hPa 0,0 mm 3,2 km/h (1 Bft) O 270 0 min 0 W/m 10,8 C 12,1 C 7,2 km/h (2 Bft)
16/10/2012 15:20 12,4 C 91 % 1010,5 hPa 0,0 mm 5,4 km/h (2 Bft) S-SO 202 0 min 0 W/m 11,0 C 12,4 C 5,8 km/h (2 Bft)
16/10/2012 15:30 12,8 C 90 % 1010,6 hPa 0,0 mm 0,4 km/h (0 Bft) S-SO 202 0 min 0 W/m 11,2 C 12,8 C 0,4 km/h (0 Bft)
16/10/2012 15:40 13,4 C 88 % 1010,5 hPa 0,0 mm 2,5 km/h (1 Bft) S-SO 202 0 min 0 W/m 11,5 C 13,4 C 3,6 km/h (1 Bft)
16/10/2012 15:50 13,5 C 87 % 1010,6 hPa 0,0 mm 5,8 km/h (2 Bft) S 180 0 min 0 W/m 11,4 C 13,5 C 9,4 km/h (2 Bft)
16/10/2012 16:00 13,8 C 85 % 1010,6 hPa 0,0 mm 5,4 km/h (2 Bft) S-SO 202 0 min 0 W/m 11,3 C 13,8 C 8,3 km/h (2 Bft)
16/10/2012 16:10 13,8 C 84 % 1010,6 hPa 0,0 mm 2,2 km/h (1 Bft) SO 225 0 min 0 W/m 11,1 C 13,8 C 2,9 km/h (1 Bft)
16/10/2012 16:20 13,8 C 83 % 1010,7 hPa 0,0 mm 2,9 km/h (1 Bft) SO 225 0 min 0 W/m 11,0 C 13,8 C 6,8 km/h (2 Bft)
16/10/2012 16:30 13,9 C 82 % 1010,5 hPa 0,0 mm 4,3 km/h (1 Bft) SO 225 0 min 0 W/m 10,9 C 13,9 C 7,2 km/h (2 Bft)
16/10/2012 16:40 13,9 C 82 % 1010,3 hPa 0,0 mm 0,7 km/h (0 Bft) S-SO 202 0 min 0 W/m 10,9 C 13,9 C 4,0 km/h (1 Bft)
16/10/2012 16:50 14,1 C 82 % 1010,3 hPa 0,0 mm 5,4 km/h (2 Bft) SO 225 0 min 0 W/m 11,1 C 14,1 C 7,6 km/h (2 Bft)
16/10/2012 17:00 13,9 C 80 % 1010,4 hPa 0,0 mm 3,6 km/h (1 Bft) S-SO 202 0 min 0 W/m 10,5 C 13,9 C 6,1 km/h (2 Bft)
16/10/2012 17:10 13,8 C 80 % 1010,1 hPa 0,0 mm 4,7 km/h (1 Bft) S-SO 202 0 min 0 W/m 10,4 C 13,8 C 4,7 km/h (1 Bft)
16/10/2012 17:20 13,5 C 80 % 1010,1 hPa 0,0 mm 4,7 km/h (1 Bft) S-SO 202 0 min 0 W/m 10,1 C 13,5 C 4,7 km/h (1 Bft)
16/10/2012 17:30 13,4 C 81 % 1010,1 hPa 0,0 mm 5,0 km/h (1 Bft) S-SE 157 0 min 0 W/m 10,2 C 13,4 C 10,8 km/h (2 Bft)
16/10/2012 17:40 13,1 C 81 % 1010,0 hPa 0,0 mm 3,2 km/h (1 Bft) S-SE 157 0 min 0 W/m 9,9 C 13,1 C 6,1 km/h (2 Bft)
16/10/2012 17:50 12,9 C 82 % 1010,0 hPa 0,0 mm 0,7 km/h (0 Bft) S 180 0 min 0 W/m 9,9 C 12,9 C 4,0 km/h (1 Bft)
16/10/2012 18:00 12,6 C 83 % 1009,8 hPa 0,0 mm 0,0 km/h (0 Bft) S-SE 157 0 min 0 W/m 9,8 C 12,6 C 0,0 km/h (0 Bft)
16/10/2012 18:10 12,3 C 83 % 1010,0 hPa 0,0 mm 0,4 km/h (0 Bft) S-SE 157 0 min 0 W/m 9,5 C 12,3 C 2,9 km/h (1 Bft)
16/10/2012 18:20 12,1 C 84 % 1010,0 hPa 0,0 mm 2,5 km/h (1 Bft) S-SE 157 0 min 0 W/m 9,5 C 12,1 C 4,3 km/h (1 Bft)
16/10/2012 18:30 11,8 C 84 % 1009,7 hPa 0,0 mm 3,2 km/h (1 Bft) SE 135 0 min 0 W/m 9,2 C 11,8 C 6,5 km/h (2 Bft)
16/10/2012 18:40 11,6 C 85 % 1009,7 hPa 0,0 mm 0,7 km/h (0 Bft) SE 135 0 min 0 W/m 9,2 C 11,6 C 0,7 km/h (0 Bft)
16/10/2012 18:50 11,5 C 86 % 1009,6 hPa 0,0 mm 0,0 km/h (0 Bft) SE 135 0 min 0 W/m 9,2 C 11,5 C 0,0 km/h (0 Bft)
16/10/2012 19:00 11,3 C 86 % 1009,7 hPa 0,0 mm 0,0 km/h (0 Bft) S-SE 157 0 min 0 W/m 9,0 C 11,3 C 0,0 km/h (0 Bft)
16/10/2012 19:10 11,1 C 87 % 1009,6 hPa 0,0 mm 0,0 km/h (0 Bft) SE 135 0 min 0 W/m 9,0 C 11,1 C 3,2 km/h (1 Bft)
16/10/2012 19:20 10,9 C 88 % 1009,4 hPa 0,0 mm 5,4 km/h (2 Bft) S-SE 157 0 min 0 W/m 9,0 C 10,9 C 10,4 km/h (2 Bft)
16/10/2012 19:30 10,9 C 88 % 1009,4 hPa 0,0 mm 0,0 km/h (0 Bft) S-SE 157 0 min 0 W/m 9,0 C 10,9 C 0,0 km/h (0 Bft)
16/10/2012 19:40 10,8 C 88 % 1009,5 hPa 0,0 mm 3,2 km/h (1 Bft) SE 135 0 min 0 W/m 8,9 C 10,8 C 4,3 km/h (1 Bft)
16/10/2012 19:50 10,8 C 88 % 1009,4 hPa 0,0 mm 3,6 km/h (1 Bft) SE 135 0 min 0 W/m 8,9 C 10,8 C 6,1 km/h (2 Bft)
16/10/2012 20:00 10,7 C 89 % 1009,1 hPa 0,0 mm 2,9 km/h (1 Bft) SE 135 0 min 0 W/m 9,0 C 10,7 C 3,6 km/h (1 Bft)
16/10/2012 20:10 10,7 C 89 % 1009,1 hPa 0,0 mm 7,2 km/h (2 Bft) SE 135 0 min 0 W/m 9,0 C 10,7 C 10,8 km/h (2 Bft)
16/10/2012 20:20 10,7 C 89 % 1009,0 hPa 0,0 mm 4,7 km/h (1 Bft) S-SE 157 0 min 0 W/m 9,0 C 10,7 C 12,2 km/h (2 Bft)
16/10/2012 20:30 10,7 C 90 % 1008,8 hPa 0,0 mm 0,7 km/h (0 Bft) SE 135 0 min 0 W/m 9,1 C 10,7 C 3,2 km/h (1 Bft)
16/10/2012 20:40 10,8 C 90 % 1008,5 hPa 0,0 mm 3,2 km/h (1 Bft) S-SE 157 0 min 0 W/m 9,2 C 10,8 C 4,3 km/h (1 Bft)
16/10/2012 20:50 10,8 C 90 % 1008,8 hPa 0,0 mm 4,3 km/h (1 Bft) S 180 0 min 0 W/m 9,2 C 10,8 C 9,4 km/h (2 Bft)
16/10/2012 21:00 10,9 C 90 % 1008,4 hPa 0,0 mm 3,6 km/h (1 Bft) S-SE 157 0 min 0 W/m 9,3 C 10,9 C 8,6 km/h (2 Bft)
16/10/2012 21:10 11,1 C 90 % 1008,3 hPa 0,0 mm 5,8 km/h (2 Bft) S-SO 202 0 min 0 W/m 9,5 C 11,1 C 5,8 km/h (2 Bft)
16/10/2012 21:20 11,2 C 91 % 1008,4 hPa 0,0 mm 5,8 km/h (2 Bft) S 180 0 min 0 W/m 9,8 C 11,2 C 11,9 km/h (2 Bft)
16/10/2012 21:30 11,2 C 91 % 1008,4 hPa 0,0 mm 9,7 km/h (2 Bft) S-SO 202 0 min 0 W/m 9,8 C 11,2 C 15,1 km/h (3 Bft)
16/10/2012 21:40 11,3 C 91 % 1008,5 hPa 0,0 mm 6,8 km/h (2 Bft) S 180 0 min 0 W/m 9,9 C 11,3 C 10,1 km/h (2 Bft)
16/10/2012 21:50 11,4 C 91 % 1008,3 hPa 0,0 mm 9,4 km/h (2 Bft) S-SE 157 0 min 0 W/m 10,0 C 11,4 C 11,5 km/h (2 Bft)
16/10/2012 22:00 11,6 C 92 % 1008,1 hPa 0,0 mm 8,6 km/h (2 Bft) S-SO 202 0 min 0 W/m 10,3 C 11,6 C 15,5 km/h (3 Bft)
16/10/2012 22:10 11,8 C 92 % 1008,0 hPa 0,0 mm 9,0 km/h (2 Bft) S-SO 202 0 min 0 W/m 10,5 C 11,8 C 9,0 km/h (2 Bft)
16/10/2012 22:20 11,8 C 92 % 1008,0 hPa 0,0 mm 5,4 km/h (2 Bft) SE 135 0 min 0 W/m 10,5 C 11,8 C 9,7 km/h (2 Bft)
16/10/2012 22:30 11,9 C 92 % 1008,0 hPa 0,0 mm 11,2 km/h (2 Bft) S 180 0 min 0 W/m 10,6 C 11,9 C 15,1 km/h (3 Bft)
16/10/2012 22:40 12,0 C 92 % 1008,1 hPa 0,0 mm 4,7 km/h (1 Bft) S-SO 202 0 min 0 W/m 10,7 C 12,0 C 7,2 km/h (2 Bft)
16/10/2012 22:50 12,1 C 92 % 1007,8 hPa 0,0 mm 4,7 km/h (1 Bft) S-SO 202 0 min 0 W/m 10,8 C 12,1 C 6,1 km/h (2 Bft)
16/10/2012 23:00 12,1 C 92 % 1007,7 hPa 0,0 mm 4,7 km/h (1 Bft) S-SE 157 0 min 0 W/m 10,8 C 12,1 C 8,3 km/h (2 Bft)
16/10/2012 23:10 12,1 C 92 % 1007,8 hPa 0,0 mm 4,0 km/h (1 Bft) S-SE 157 0 min 0 W/m 10,8 C 12,1 C 9,4 km/h (2 Bft)
16/10/2012 23:20 12,1 C 92 % 1007,7 hPa 0,0 mm 7,6 km/h (2 Bft) S 180 0 min 0 W/m 10,8 C 12,1 C 11,2 km/h (2 Bft)
16/10/2012 23:30 12,2 C 92 % 1007,5 hPa 0,0 mm 10,8 km/h (2 Bft) S-SE 157 0 min 0 W/m 10,9 C 12,2 C 18,7 km/h (3 Bft)
16/10/2012 23:40 12,3 C 91 % 1007,4 hPa 0,0 mm 8,6 km/h (2 Bft) S 180 0 min 0 W/m 10,9 C 12,3 C 11,2 km/h (2 Bft)
16/10/2012 23:50 12,4 C 91 % 1007,1 hPa 0,0 mm 2,9 km/h (1 Bft) E-SE 112 0 min 0 W/m 11,0 C 12,4 C 7,9 km/h (2 Bft)
_ Min-Heure 00:10 03:50 23:50 - 19:30 - - - - 00:40 02:10 19:30
Minimum _ 8,8 C 79 % 1007,1 hPa - 0,0 km/h (0 Bft) - - - - 5,8 C 7,2 C 0,0 km/h (0 Bft)
_ Max-Heure 16:50 14:20 12:40 13:00 06:30 - - 23:50 23:50 15:40 16:50 07:30
Maximum _ 14,1 C 93 % 1011,0 hPa 0,1 mm 16,2 km/h
S-SO (3 Bft)
- - 0 min 0 W/m 11,5 C 14,1 C 24,5 km/h
S (4 Bft)
Moyenne _ 10,9 C 86 % 1009,5 hPa #0,6 mm 6,4 km/h (2 Bft) S-SO - #0 min. 0 W/m 8,6 C 10,7 C 9,8 km/h (2 Bft)
Saint Bonnet de Bellac- Haute Vienne - France